Regional Weather Roundup
Issued by NWS

Home | Current Version | Previous Version | Text Only | Print | Product List | Glossary Off
Versions: 1 2 3 4 5 6 7 8 9 10 11 12 13 14 15 16 17 18 19 20 21 22 23 24 25 26 27 28 29 30 31 32 33 34 35 36 37 38 39 40 41 42 43 44 45 46 47 48 49 50

000
ASUS43 KLMK 292002
RWRKY
KENTUCKY REGIONAL WEATHER ROUNDUP
NATIONAL WEATHER SERVICE LOUISVILLE KY
400 PM EDT SUN MAR 29 2015

NOTE "FAIR" INDICATES FEW OR NO CLOUDS BELOW 12,000 FEET
WITH NO SIGNIFICANT WEATHER AND/OR OBSTRUCTIONS TO VISIBILITY.

KYZ001>023-026-027-061>063-070>075-292100-
WESTERN AND SOUTH CENTRAL KENTUCKY

CITY           SKY/WX    TMP DP  RH WIND       PRES   REMARKS
PADUCAH        CLOUDY    57  34  41 S9G25     30.06F
HENDERSON      MOSUNNY   57  28  33 S18G25    30.03F
OWENSBORO      SUNNY     58  28  32 S16G23    30.05F
HOPKINSVILLE   PTSUNNY   62  28  28 S13       30.09F
BOWLING GREEN  SUNNY     60  19  20 SW17G23   30.14F
GLASGOW        NOT AVBL
$$

KYZ024-025-028>034-038-045-046-053-292100-
NORTH CENTRAL KENTUCKY

CITY           SKY/WX    TMP DP  RH WIND       PRES   REMARKS
LOUISVILLE/SDF PTSUNNY   58  13  17 S16       30.09F
LOUISVILLE/LOU MOSUNNY   56  15  20 S16G23    30.09F
FORT KNOX      SUNNY     57  16  20 S18G26    30.09F
$$

KYZ035>037-039>044-047>052-055>060-089>105-292100-
NORTHEAST KENTUCKY

CITY           SKY/WX    TMP DP  RH WIND       PRES   REMARKS
LEXINGTON      MOSUNNY   55  10  16 S18G24    30.14F
COVINGTON      CLOUDY    49  14  24 S18G24    30.10F
FRANKFORT      MOSUNNY   56   7  14 S14       30.11F
$$

KYZ054-064>069-076>088-106>120-292100-
SOUTHEAST KENTUCKY

CITY           SKY/WX    TMP DP  RH WIND       PRES   REMARKS
JACKSON        SUNNY     55   6  14 VRB3      30.19F
LONDON         SUNNY     56   7  14 SE8G17    30.17F
SOMERSET       NOT AVBL
MIDDLESBORO    SUNNY     54  10  17 SE6       30.21F
MONTICELLO     CLEAR     60  10  14 SW9       30.19F
$$



USA.gov is the U.S. government's official web portal to all federal, state and local government web resources and services.